FENGYUN 1C DEB, 30702

Orbit data source: Space-Track

FENGYUN 1C DEB, 30702 is space debris in SSO originally from a launch on Mon, 10 May 1999 UTC launched from the Taiyaun Space Center, China (TSC). Fengyun 1C debris stems from the Chinese weather satellite Fengyun-1C, which was intentionally destroyed by a Chinese anti-satellite missile in 2007. This event dramatically increased the amount of space debris, with thousands of trackable fragments posing hazards to satellites and human spaceflight. The Fengyun 1C debris cloud has become a focal point in discussions about space sustainability and the need for international regulations to prevent the creation of new debris.

Loading next visibility...
Identifier
30702, 1999-025ARL
Orbit
SSO
Country
Flag of CNCN / PRC
Related business
Manufacturer
Unknown
Mission
Spacecraft
Bus & Motor
Unknown
Mass
Unknown
Launch date (UTC)
1999-05-10 (27 years ago)
Launch vehicle
Unknown
Launch site
Taiyaun Space Center, China (TSC)
Object type
Payload
Rocket body
Debris
Shape & HBR
Unknown shape, 0.1 m
Radar Cross Section
Small (<0.1 m²)

Expand to show TLE details & history
Last TLE update: 22 hours ago

TLE from 22 hours ago
0 FENGYUN 1C DEB
1 30702U 99025ARL 26236.53538579  .00000483  00000-0  32433-3 0  9994
2 30702  98.7567 252.2846 0069422 308.0958 203.8091 14.04222711997373
Epoch: 2026-08-24T12:50Z
TLE epoch observation values (Epoch: 2026-08-24T12:50:57.332Z)
Latitude
28.09583°
Longitude
-88.57776°
Altitude
928.803 km
Speed
7.366 km/s
True Right ascension
05h 07m 54s
True Declination
27° 57' 24"
Sunlit
Object was in daylight at epoch
Visualization orbit readout
Latitude
Unknown
Longitude
Unknown
Altitude
Unknown
Speed
Unknown
Apparent Right ascension
Unknown
Apparent Declination
Unknown
Sunlit
N/A
Visualization observer readout
Local Sidereal Time
02:29:18
Azimuth
Unknown
Elevation
Unknown
Doppler factor
Unknown
Orbital elements
Apogee altitude
926.753 km
Perigee altitude
826.029 km
Semi-major axis
7,254.528 km
Eccentricity
0.00694
Inclination
98.7567°
RAAN
252.2846°
Arg. of periapsis
308.0958°
True anomaly
203.49049°
Mean anomaly
203.8091°
Eccentric anomaly
203.64954°
Mean motion
3.51261 °/min
Orbital period
102.49 mins
BSTAR
0.00032433
Loading maneuver chart data...
Computing Atmospheric mass density...

Documentation

Showing up to 5 results
|